Location: Haliburton Scout Reserve
(45.0900°N, 78.3200°W)
Time: 08:08:15
(UTC-04:00)

S-56A Canister/Altair - Pass Details

Date: 04 February 2023
Orbit: 639 x 2493 km, 38.9° (Epoch: 27 March)

Event Time Altitude Azimuth Distance (km) Brightness Sun altitude
Rises 12:06:26 0° 247° (WSW) 2,952 10.7 28.6°
Reaches altitude 10° 12:08:39 10° 240° (WSW) 2,102 10.2 28.6°
Maximum altitude 12:13:06 42° 169° (S) 1,096 10.4 28.7°
Drops below altitude 10° 12:18:52 10° 101° (E) 2,728 10.6 28.7°
Sets 12:22:07 0° 95° (E) 3,956 11.3 28.8°
